This demonstration page uses our WeatherBlox Daily Observations layout. Learn more.

Left ArrowRight Arrow

Hourly Observations for July 31, 2018

Temp ( °F °C ) Dew Point ( °F °C ) Humidity (%) Winds ( mph kmh ) Pressure ( in mb ) Visibility ( mi km ) Precip ( " mm )
12:53 am 00:53 Cloudy with Haze 78 25.6 64 17.8 62 62 Calm 29.87 1011 6 10 0.00 0.00
1:53 am 01:53 Cloudy with Haze 75 23.9 64 17.8 69 69 undefined N/A 29.87 1011 5 8 0.00 0.00
2:53 am 02:53 Cloudy with Haze 75 23.9 63 17.2 66 66 N 3 6 29.87 1011 5 8 0.00 0.00
3:53 am 03:53 Cloudy with Haze 73 22.8 63 17.2 71 71 Calm 29.86 1011 4 6 0.00 0.00
4:53 am 04:53 Cloudy with Haze 73 22.8 63 17.2 71 71 Calm 29.86 1011 4 6 0.00 0.00
5:53 am 05:53 Cloudy with Haze 73 22.8 63 17.2 71 71 NNW 3 6 29.87 1011 4 6 0.00 0.00
6:21 am 06:21 Cloudy with Haze 72 22.2 62 16.7 71 71 Calm 29.88 1012 3 4 0.00 0.00
6:43 am 06:43 Cloudy with Haze 72 22.2 62 16.7 71 71 Calm 29.91 1013 3 5 0.00 0.00
6:53 am 06:53 Cloudy with Haze 72 22.2 63 17.2 73 73 Calm 29.88 1012 3 5 0.00 0.00
7:53 am 07:53 Cloudy with Haze 74 23.3 62 16.7 67 67 Calm 29.88 1012 3 5 0.00 0.00
8:53 am 08:53 Cloudy with Haze 79 26.1 61 16.1 54 54 Calm 29.89 1012 3 5 0.00 0.00
9:50 am 09:50 Cloudy with Haze 84 29 59 15 43 43 N 3 6 29.91 1013 3 5 0.00 0.00
9:53 am 09:53 Cloudy with Haze 86 30 59 15 40 40 N 3 6 29.89 1012 3 5 0.00 0.00
10:01 am 10:01 Cloudy with Haze 86 30 60 15.6 42 42 WNW 3 6 29.91 1013 3 5 0.00 0.00
10:53 am 10:53 Cloudy with Haze 89 31.7 58 14.4 35 35 NNW 3 6 29.88 1012 3 5 0.00 0.00
11:53 am 11:53 Cloudy with Haze 93 33.9 57 13.9 30 30 NNW 3 6 29.88 1012 3 5 0.00 0.00
12:00 pm 12:00 Cloudy with Haze 94 34.4 57 13.9 29 29 Calm 29.88 1012 3 4 0.00 0.00
12:15 pm 12:15 Cloudy with Haze 93 33.9 57 13.9 30 30 W 6 9 29.88 1012 3 5 0.00 0.00
12:53 pm 12:53 Cloudy with Haze 95 35 57 13.9 28 28 W 7 11 29.86 1011 3 5 0.00 0.00
1:53 pm 13:53 Cloudy with Haze 96 35.6 58 14.4 28 28 SW 7 11 29.85 1011 3 5 0.00 0.00
2:50 pm 14:50 Mostly Cloudy with Haze 99 37 55 13 24 24 VRB 3 6 29.83 1010 3 5 0.00 0.00
2:53 pm 14:53 Mostly Cloudy with Haze 99 37.2 55 12.8 23 23 Calm 29.83 1010 3 5 0.00 0.00
3:34 pm 15:34 Cloudy with Haze 100 37.8 56 13.3 23 23 VRB 3 6 29.80 1009 3 5 0.00 0.00
3:53 pm 15:53 Cloudy with Haze 101 38.3 55 12.8 22 22 WSW 5 7 29.81 1009 3 5 0.00 0.00
4:53 pm 16:53 Cloudy with Haze 101 38.3 57 13.9 23 23 Calm 29.79 1009 3 5 0.00 0.00
5:17 pm 17:17 Cloudy with Haze 101 38.3 56 13.3 22 22 SSE 6 9 29.77 1008 4 6 0.00 0.00
5:53 pm 17:53 Cloudy with Haze 101 38.3 56 13.3 22 22 SE 7 11 29.78 1008 4 6 0.00 0.00
6:53 pm 18:53 Cloudy with Haze 98 36.7 59 15 27 27 SSE 9 15 29.77 1008 4 6 0.00 0.00
7:53 pm 19:53 Cloudy with Haze 93 33.9 57 13.9 30 30 SSE 3 6 29.78 1009 4 6 0.00 0.00
8:53 pm 20:53 Cloudy with Haze 87 30.6 61 16.1 42 42 SE 9 15 29.79 1009 5 8 0.00 0.00
9:53 pm 21:53 Cloudy with Haze 88 31.1 65 18.3 46 46 SW 3 6 29.82 1010 6 10 0.00 0.00
10:53 pm 22:53 Cloudy with Haze 83 28.3 64 17.8 53 53 WNW 5 7 29.83 1010 5 8 0.00 0.00
11:53 pm 23:53 Cloudy with Haze 80 26.7 63 17.2 56 56 Calm 29.85 1011 3 5 0.00 0.00

Powered by AerisWeather